Preview of NWS' New Version of Forecast
This preview is not operational and should not be used for support decisions.

Regional Weather Roundup (RWR)

Issued by National Weather Service (NWS)

                            
000
ASUS46 KSEW 182110
RWRWA 

WASHINGTON REGIONAL WEATHER ROUNDUP
NATIONAL WEATHER SERVICE SEATTLE WA
100 PM PST MON FEB 18 2019

NOTE:"FAIR" INDICATES FEW OR NO CLOUDS BELOW 12,000 FEET WITH NO 
SIGNIFICANT WEATHER AND/OR OBSTRUCTIONS TO VISIBILITY.

WAZ507-509-555>559-182200-
SEATTLE, TACOMA, EVERETT, AND VICINITY
  
CITY           SKY/WX    TMP DP  RH WIND       PRES   REMARKS
EVERETT        CLOUDY    39  34  82 NE3       30.38F                  
BOEING FIELD   CLOUDY    41  36  82 E6        30.40F                  
RENTON         CLOUDY    42  35  76 E3        30.40F                  
SEATAC AIRPORT PTSUNNY   42  35  76 SE5       30.38F                  
JBLM-MCCHORD   CLOUDY    43  42  96 SW5       30.39S                  
PUYALLUP       CLOUDY    45  36  70 SW5       30.38F                  
BREMERTON      CLOUDY    40  34  79 SW5       30.39S                  
JBLM-FT LEWIS  NOT AVBL                                               
TACOMA NARROWS LGT RAIN  40  34  79 SW5       30.39F                  
$$
 
WAZ001-503-506-510-514-515-182200-
NORTH INTERIOR
  
CITY           SKY/WX    TMP DP  RH WIND       PRES   REMARKS
BELLINGHAM     CLOUDY    36  20  52 N5        30.40F                  
FRIDAY HARBOR  CLOUDY    40  29  64 SE5       30.40F                  
EASTSOUND      CLOUDY    39  32  75 NE6       30.39F                  
PORT ANGELES   MOSUNNY   41  32  70 E6        30.38F                  
EDIZ HOOK      FAIR      42  34  74 NE5       30.39F                  
PORT TOWNSEND  CLOUDY    41  36  81 E7        30.38F                  
NAS WHIDBEY    NOT AVBL                                               
ARLINGTON      CLOUDY    39  34  82 S5        30.40F                  
BURLINGTON     CLOUDY    37  25  60 NE7       30.40F                  
$$
 
WAZ020-022-039-040-504-511-512-182200-
SOUTHWEST INTERIOR
  
CITY           SKY/WX    TMP DP  RH WIND       PRES   REMARKS
SHELTON        CLOUDY    42  33  70 SW9       30.36F                  
OLYMPIA        PTSUNNY   42  34  73 S7        30.39F                  
CHEHALIS       CLOUDY    45  36  70 VRB5      30.40F                  
KELSO          CLOUDY    41  34  76 SE8       30.43F                  
VANCOUVER      CLOUDY    39  34  82 SW3       30.43F                  
SCAPPOOSE, OR  CLOUDY    38  35  89 CALM      30.44F                  
PORTLAND, OR   CLOUDY    40  34  79 NW8       30.44F                  
$$
 
WAZ021-516-517-182200-
WASHINGTON COAST
  
CITY           SKY/WX    TMP DP  RH WIND       PRES   REMARKS
FORKS          CLOUDY    44  40  85 VRB3      30.38F                  
HOQUIAM        LGT RAIN  44  40  85 W6        30.40F FOG              
ASTORIA, OR    CLOUDY    42  37  82 N6        30.41F                  
$$
 
WAZ019-023-024-040-567>569-182200-
CASCADE MOUNTAINS AND COLUMBIA GORGE
  
CITY           SKY/WX    TMP DP  RH WIND       PRES   REMARKS
STAMPEDE PASS  SNOW      26  23  88 VRB6      30.19S VSB 1/4          
TROUTDALE, OR  CLOUDY    42  34  73 NW8       30.43F                  
HOOD RIVER, OR CLEAR     41  30  65 CALM      30.37F                  
THE DALLES, OR MOSUNNY   37  29  72 NE6       30.39F                  
$$

WAZ026-027-041>044-520-521-182200-
EAST SLOPES
  
CITY           SKY/WX    TMP DP  RH WIND       PRES   REMARKS
OMAK           SUNNY     28  13  53 N12       30.33F WCI  18          
WENATCHEE      SUNNY     26  14  60 SE3       30.34F                  
ELLENSBURG     SUNNY     34  21  59 SE5       30.28F                  
YAKIMA         SUNNY     30  21  69 S6        30.33F                  
SUNNYSIDE ARPT PTCLDY    32  23  68 SE3       30.37                   
YAKIMA TC      FAIR      30  21  69 SW6       30.29F                  
$$

WAZ028-034-035-182200-
COLUMBIA BASIN
  
CITY           SKY/WX    TMP DP  RH WIND       PRES   REMARKS
EPHRATA        CLOUDY    29  14  53 NE3       30.34F                  
MOSES LAKE     CLOUDY    28  12  51 SE3       30.35F                  
PASCO          CLOUDY    31  19  61 E6        30.41F                  
RICHLAND ARPT  CLOUDY    32  22  67 E6        30.40F                  
HERMISTON, OR  CLOUDY    34  21  59 SW3       30.38F                  
$$

WAZ036>038-182200-
NORTHEAST WASHINGTON
  
CITY           SKY/WX    TMP DP  RH WIND       PRES   REMARKS
SPOKANE GEIGER PTSUNNY   24   8  50 CALM      30.26F                  
SPOKANE FELTS  CLOUDY    24   9  52 E3        30.30F                  
FAIRCHILD AFB  PTSUNNY   20  10  64 W7        30.25F                  
COEURDALENE,ID PTSUNNY   31   9  39 CALM      30.28F                  
DEER PARK      CLOUDY    21   5  50 CALM      30.28F                  
$$

WAZ029>033-182200-
SOUTHEAST WASHINGTON
  
CITY           SKY/WX    TMP DP  RH WIND       PRES   REMARKS
PULLMAN        CLOUDY    19  11  70 NW5       30.28F                  
LEWISTON, ID   CLOUDY    29  15  56 CALM      30.34F                  
WALLA WALLA    CLOUDY    31  19  61 CALM      30.36F                  
PENDLETON, OR  PTSUNNY   31  22  69 NW9       30.33F                  
$$